INTELSAT 902 (IS-902)

Last updated on Wed Dec 17 2025 00:02:48 GMT+0000 (Coordinated Universal Time)

1 26900U 01039A 25349.54794076 -.00000265 00000+0 00000+0 0 9997 2 26900 5.6536 74.0372 0004502 189.6359 327.9329 1.00270870 88858
UTC large
Height (km)
Speed (km/s)
/
Latitude / Longitude
Inclination (degrees)
Orbital Period (minutes)
Azimuth
Elevation
Range (km)
Doppler Factor

Next 0 passes for location: London (51.5072 / 0.1276)

Sorry there are no passes over London.